[[{"header":{"parameterUnit":"m.s-1","parameterCategory":1,"la1":30.2991,"la2":30.254,"lo1":-89.0895,"lo2":-89.0444,"dy":0.0017,"dx":0.0017,"nx":28,"ny":28,"refTime":"2025-05-17T03:00:00:Z","depth":0,"parameterNumber":2,"parameterNumberName":"U-component_of_WINDS"},"data":[0,0,0,0,0,0,0,0,0,0,0,0,0,0,0,0,0,0,0,0,0,0,0,0,0,0,0,0,0,0,0,0,0,0,0,0,0,0,0,0,0,0,0,0,0,0,0,0,0,0,0,0,0,0,0,0,0,0,-1.2053,-1.2053,0,-1.2038,-1.2038,-1.2038,-1.2026,-1.2026,-1.2026,-1.2026,-1.2009,-1.2009,-1.2009,0,0,0,0,0,0,0,0,0,0,0,0,0,-1.2072,-1.2072,-1.2053,-1.2053,-1.2053,-1.2038,-1.2038,-1.2038,-1.2026,-1.2026,-1.2026,-1.2026,-1.201,-1.2009,-1.2009,0,0,0,0,0,0,0,0,0,0,0,0,0,-1.2061,-1.2072,-1.2053,-1.2045,-1.2044,-1.2038,-1.2038,-1.2038,-1.2026,-1.2026,-1.2026,-1.2025,-1.201,-1.2009,-1.2009,-1.2009,0,0,-1.2007,-1.2007,0,0,0,0,0,0,0,0,-1.2062,-1.206,-1.2047,-1.2046,-1.2045,-1.2034,-1.2039,-1.2028,-1.2026,-1.2033,-1.2026,-1.2025,-1.2018,-1.2016,-1.2014,-1.2008,-1.2008,-1.2007,-1.2007,-1.2007,-1.2007,0,0,0,0,0,0,0,-1.2063,-1.2061,-1.2047,-1.2046,-1.2045,-1.2042,-1.2041,-1.2037,-1.2026,-1.2032,-1.2031,-1.203,-1.2017,-1.2015,-1.2014,-1.2007,-1.2007,-1.2007,-1.2006,-1.2006,-1.2002,-1.2002,0,0,0,0,0,0,-1.2065,-1.2062,-1.2048,-1.2047,-1.2053,-1.2042,-1.204,-1.2037,-1.2026,-1.2025,-1.203,-1.2029,-1.2015,-1.2014,-1.2013,-1.2013,-1.2007,-1.2006,-1.2006,-1.2002,-1.2002,-1.2002,0,0,0,0,0,0,-1.2065,-1.2063,-1.2048,-1.2054,-1.2052,-1.2042,-1.2039,-1.2037,-1.2035,-1.2025,-1.2023,-1.2029,-1.2015,-1.2014,-1.201,-1.2012,-1.2006,-1.2006,-1.2002,-1.2002,-1.2002,-1.2013,0,0,0,0,0,0,-1.2066,-1.2064,-1.2064,-1.2054,-1.2052,-1.2046,-1.2039,-1.2037,-1.2034,-1.2033,-1.2023,-1.2022,-1.2015,-1.2011,-1.201,-1.2011,-1.2005,-1.2002,-1.2002,-1.2002,-1.2012,-1.2013,-1.2014,0,0,0,0,0,-1.2066,-1.2067,-1.2064,-1.2062,-1.2051,-1.2046,-1.2045,-1.2037,-1.2034,-1.2034,-1.2028,-1.2022,-1.2012,-1.2011,-1.2009,-1.2011,-1.2001,-1.2002,-1.2002,-1.2012,-1.2013,-1.2014,0,0,0,0,0,0,-1.2076,-1.2065,-1.2062,-1.2059,-1.2054,-1.2044,-1.2044,-1.2039,-1.2034,-1.2033,-1.2024,-1.2022,-1.202,-1.2015,-1.2014,-1.2011,-1.2006,-1.2006,-1.2014,-1.2015,-1.2016,-1.2017,-1.2005,0,0,0,0,0,-1.2078,-1.2075,-1.2066,-1.2064,-1.2062,-1.2053,-1.2051,-1.2046,-1.2039,-1.2037,-1.203,-1.2025,-1.202,-1.2018,-1.2013,-1.2012,-1.201,-1.2012,-1.2013,-1.2014,-1.2014,-1.2013,-1.2014,-1.2004,-1.2004,-1.2004,0,0,-1.2082,-1.2076,-1.2074,-1.2066,-1.2061,-1.2058,-1.2051,-1.2048,-1.2046,-1.2036,-1.2033,-1.2028,-1.2021,-1.2019,-1.2018,-1.2015,-1.2017,-1.2015,-1.2015,-1.2015,-1.2014,-1.2015,-1.2016,-1.2004,-1.2004,-1.2004,0,0,-1.2088,-1.2083,-1.2081,-1.2077,-1.2069,-1.2064,-1.2064,-1.2055,-1.2052,-1.2048,-1.2041,-1.2039,-1.2031,-1.2027,-1.2023,-1.2028,-1.2023,-1.2027,-1.2032,-1.2032,-1.2033,-1.2033,-1.2035,-1.2036,-1.2027,-1.2027,-1.2027,0,-1.2093,-1.2088,-1.2081,-1.2078,-1.2075,-1.2067,-1.2066,-1.2062,-1.2053,-1.2052,-1.2049,-1.204,-1.2035,-1.2032,-1.2033,-1.2031,-1.203,-1.2028,-1.2033,-1.2034,-1.2034,-1.2036,-1.2037,-1.2028,-1.2028,-1.2028,-1.2028,0,-1.2095,-1.2092,-1.2092,-1.2085,-1.2081,-1.208,-1.2072,-1.207,-1.2065,-1.206,-1.2057,-1.2051,-1.2045,-1.2044,-1.2039,-1.2041,-1.2039,-1.2035,-1.203,-1.2036,-1.2037,-1.2038,-1.2029,-1.2029,-1.2028,-1.2028,0,0,-1.2106,-1.2095,-1.2095,-1.2092,-1.2084,-1.2081,-1.208,-1.2074,-1.2073,-1.2068,-1.2066,-1.206,-1.2057,-1.2053,-1.2048,-1.2048,-1.2052,-1.2044,-1.2043,-1.2045,-1.2053,-1.2056,-1.2057,-1.2049,-1.2049,-1.2049,-1.2054,0,-1.211,-1.2105,-1.2099,-1.2097,-1.2094,-1.2087,-1.2086,-1.2081,-1.2076,-1.2073,-1.2068,-1.2064,-1.206,-1.2058,-1.2057,-1.2052,-1.2054,-1.2051,-1.2047,-1.2047,-1.2048,-1.2057,-1.206,-1.2065,-1.2054,-1.2054,-1.2054,0,-1.2113,-1.2109,-1.2107,-1.21,-1.2098,-1.2097,-1.2092,-1.2089,-1.2084,-1.2081,-1.2077,-1.2072,-1.207,-1.2066,-1.2062,-1.2061,-1.2059,-1.2056,-1.2056,-1.2055,-1.205,-1.2056,-1.2066,-1.2066,-1.2055,-1.2055,-1.2055,0,-1.2121,-1.2115,-1.2113,-1.211,-1.2102,-1.2101,-1.2098,-1.2092,-1.209,-1.2086,-1.2084,-1.2079,-1.2077,-1.2074,-1.2067,-1.2065,-1.2065,-1.206,-1.2062,-1.2062,-1.2062,-1.2062,-1.2071,-1.2061,-1.2061,-1.2061,-1.2061,0,-1.2126,-1.2125,-1.2116,-1.2115,-1.2113,-1.2107,-1.2106,-1.2101,-1.2097,-1.2095,-1.2089,-1.2087,-1.2079,-1.2076,-1.2071,-1.2069,-1.2068,-1.2066,-1.2064,-1.2066,-1.2066,-1.2064,-1.2063,-1.2061,-1.2061,-1.2061,-1.2061,0,-1.2134,-1.2128,-1.2125,-1.2118,-1.2116,-1.2116,-1.2109,-1.2108,-1.2104,-1.2101,-1.21,-1.2093,-1.209,-1.2083,-1.2078,-1.2075,-1.2074,-1.2072,-1.2076,-1.2075,-1.2077,-1.2077,-1.2084,-1.2085,-1.2075,-1.2076,-1.2076,0,-1.2137,-1.2136,-1.2129,-1.2127,-1.2124,-1.2121,-1.2119,-1.2112,-1.211,-1.2104,-1.2104,-1.21,-1.2097,-1.2091,-1.2086,-1.2082,-1.2079,-1.2083,-1.2079,-1.2081,-1.2079,-1.2079,-1.2079,-1.2083,-1.2083,-1.2083,-1.2083,0,-1.2143,-1.2141,-1.2137,-1.2133,-1.2131,-1.2127,-1.2123,-1.2122,-1.2115,-1.2113,-1.211,-1.2107,-1.2102,-1.2098,-1.2094,-1.209,-1.2086,-1.2085,-1.2085,-1.2086,-1.2089,-1.2087,-1.2078,-1.2085,-1.2084,-1.2084,-1.2084,-1.2084,-1.2149,-1.2148,-1.2143,-1.2139,-1.2136,-1.2133,-1.2131,-1.2127,-1.2124,-1.2119,-1.2116,-1.2113,-1.2108,-1.2102,-1.2099,-1.2096,-1.2094,-1.2094,-1.2094,-1.2094,-1.2095,-1.209,-1.2095,-1.2095,-1.2095,-1.2095,-1.2095,0,-1.2155,-1.2151,-1.2148,-1.2144,-1.2141,-1.2138,-1.2133,-1.2132,-1.2129,-1.2125,-1.2122,-1.2118,-1.2115,-1.211,-1.2106,-1.2105,-1.2103,-1.2104,-1.2104,-1.2103,-1.2097,-1.2097,-1.2106,-1.2106,-1.2106,-1.2106,-1.2106,-1.2106,-1.2157,-1.2156,-1.2152,-1.2149,-1.2146,-1.2143,-1.2141,-1.2138,-1.2134,-1.2131,-1.2128,-1.2125,-1.212,-1.2116,-1.2113,-1.2112,-1.211,-1.2112,-1.211,-1.2104,-1.2103,-1.2102,-1.2103,-1.2112,-1.2112,-1.2116,-1.2116,-1.2116]},{"header":{"parameterUnit":"m.s-1","parameterCategory":1,"la1":30.2991,"la2":30.254,"lo1":-89.0895,"lo2":-89.0444,"dy":0.0017,"dx":0.0017,"nx":28,"ny":28,"refTime":"2025-05-17T03:00:00:Z","depth":0,"parameterNumber":3,"parameterNumberName":"V-component_of_WINDS"},"data":[0,0,0,0,0,0,0,0,0,0,0,0,0,0,0,0,0,0,0,0,0,0,0,0,0,0,0,0,0,0,0,0,0,0,0,0,0,0,0,0,0,0,0,0,0,0,0,0,0,0,0,0,0,0,0,0,0,0,4.5388,4.5388,0,4.5399,4.5399,4.5399,4.5332,4.533,4.5328,4.5327,4.5336,4.5338,4.534,0,0,0,0,0,0,0,0,0,0,0,0,0,4.5307,4.5309,4.5388,4.5388,4.5388,4.5399,4.5399,4.5399,4.5332,4.533,4.5328,4.5326,4.5335,4.5338,4.534,0,0,0,0,0,0,0,0,0,0,0,0,0,4.5333,4.531,4.5388,4.5356,4.5353,4.5399,4.5399,4.5399,4.5333,4.533,4.5327,4.5325,4.5334,4.5337,4.534,4.5416,0,0,4.535,4.5351,0,0,0,0,0,0,0,0,4.5331,4.5336,4.5361,4.5358,4.5355,4.5361,4.5374,4.5404,4.5334,4.5341,4.5327,4.5323,4.5346,4.5348,4.5356,4.5416,4.5416,4.535,4.5352,4.5353,4.5354,0,0,0,0,0,0,0,4.533,4.5335,4.5392,4.5361,4.5358,4.5341,4.5341,4.5379,4.5359,4.534,4.5335,4.5337,4.5344,4.5354,4.5356,4.5417,4.535,4.5352,4.5354,4.5355,4.5538,4.5541,0,0,0,0,0,0,4.5332,4.5334,4.5391,4.5392,4.5336,4.5345,4.5345,4.5362,4.5359,4.5355,4.534,4.5334,4.535,4.5353,4.5356,4.5444,4.5353,4.5356,4.5357,4.5535,4.5539,4.5542,0,0,0,0,0,0,4.5331,4.5338,4.5391,4.5362,4.5367,4.5349,4.5369,4.5364,4.5373,4.5359,4.5355,4.5353,4.5348,4.5352,4.5401,4.5444,4.5357,4.536,4.5532,4.5537,4.5541,4.5621,0,0,0,0,0,0,4.5329,4.5338,4.5367,4.5363,4.5369,4.5437,4.5371,4.5366,4.5379,4.5372,4.537,4.5367,4.5346,4.5397,4.5405,4.5446,4.5362,4.5528,4.5534,4.5539,4.5614,4.5628,4.5639,0,0,0,0,0,4.5326,4.5389,4.5369,4.5376,4.5405,4.5439,4.5443,4.5418,4.5382,4.5411,4.5402,4.5367,4.5438,4.5403,4.541,4.5454,4.5525,4.5532,4.5539,4.5609,4.5625,4.5639,0,0,0,0,0,0,4.5397,4.5387,4.5365,4.5428,4.5435,4.5428,4.5463,4.5436,4.5452,4.5445,4.5413,4.5413,4.5468,4.5466,4.5427,4.5526,4.5475,4.5484,4.5526,4.5541,4.5553,4.5553,4.5365,0,0,0,0,0,4.542,4.545,4.5439,4.5496,4.5501,4.5482,4.5496,4.5476,4.5482,4.5484,4.5478,4.5485,4.5508,4.5525,4.5546,4.5614,4.5612,4.5647,4.566,4.567,4.5678,4.5714,4.5729,4.5565,4.5565,4.5565,0,0,4.5468,4.5466,4.5487,4.551,4.5513,4.5544,4.5485,4.552,4.5542,4.5489,4.5536,4.5532,4.5537,4.5596,4.5622,4.5596,4.5723,4.5679,4.5687,4.5689,4.5722,4.5738,4.5752,4.557,4.5569,4.5568,0,0,4.557,4.5572,4.562,4.5624,4.563,4.5617,4.5629,4.5626,4.5622,4.5668,4.5629,4.5655,4.5697,4.5702,4.571,4.5815,4.5784,4.5823,4.5887,4.5923,4.5936,4.5947,4.5985,4.5999,4.5831,4.5831,4.5831,0,4.5628,4.5674,4.5647,4.5685,4.5697,4.5651,4.5699,4.5704,4.5717,4.5725,4.5696,4.5748,4.5748,4.5808,4.5834,4.5842,4.5853,4.5823,4.5936,4.5947,4.5957,4.5993,4.6007,4.5836,4.5835,4.5835,4.5834,0,4.5745,4.5778,4.5815,4.5829,4.5845,4.5887,4.5866,4.5885,4.5865,4.5855,4.5903,4.5901,4.5921,4.5934,4.5914,4.5991,4.5975,4.5942,4.589,4.5978,4.6011,4.6024,4.5843,4.5841,4.584,4.5838,0,0,4.5892,4.5892,4.5906,4.5912,4.5915,4.5939,4.598,4.6,4.6017,4.6027,4.606,4.6097,4.6066,4.6075,4.6055,4.6086,4.617,4.6049,4.6048,4.6071,4.6256,4.6281,4.6297,4.615,4.6152,4.6154,4.6255,0,4.5993,4.6063,4.604,4.611,4.614,4.6097,4.6132,4.6138,4.613,4.6154,4.6144,4.6171,4.6128,4.6134,4.6163,4.6154,4.6207,4.6146,4.618,4.6181,4.618,4.6314,4.6341,4.6437,4.6268,4.627,4.6272,0,4.6119,4.6135,4.6209,4.6208,4.6219,4.6252,4.6269,4.6292,4.6297,4.6289,4.63,4.6273,4.6313,4.6261,4.6314,4.6274,4.6286,4.6284,4.6287,4.6289,4.6232,4.632,4.6467,4.6481,4.6292,4.629,4.6289,0,4.6219,4.6259,4.6308,4.6315,4.6315,4.6338,4.6339,4.6342,4.6356,4.6371,4.6379,4.6398,4.6409,4.6424,4.6403,4.6367,4.646,4.6406,4.6454,4.6455,4.6475,4.6474,4.6626,4.6483,4.6483,4.6483,4.6483,0,4.6333,4.638,4.6353,4.6384,4.6435,4.6408,4.6459,4.6455,4.6459,4.6487,4.6451,4.6479,4.6449,4.6474,4.6458,4.6505,4.651,4.6504,4.6499,4.6508,4.6508,4.6515,4.6508,4.6487,4.6486,4.6485,4.6484,0,4.6454,4.6438,4.6489,4.6485,4.6485,4.6523,4.6519,4.6547,4.6536,4.6573,4.658,4.6564,4.6591,4.6572,4.6599,4.6588,4.665,4.6635,4.6648,4.6644,4.6693,4.6689,4.6855,4.6875,4.672,4.6721,4.6722,0,4.6528,4.6563,4.6563,4.658,4.6584,4.6611,4.6626,4.66,4.6617,4.6626,4.6653,4.6677,4.6695,4.6741,4.6731,4.6752,4.6738,4.6794,4.674,4.6748,4.6739,4.6737,4.674,4.6805,4.6807,4.6808,4.681,0,4.6661,4.6651,4.6674,4.6694,4.6712,4.6726,4.6737,4.6753,4.6728,4.6748,4.6776,4.679,4.6818,4.6843,4.686,4.686,4.6831,4.6827,4.6839,4.6848,4.6854,4.6851,4.6678,4.6823,4.6822,4.6821,4.682,4.6819,4.676,4.679,4.6795,4.6821,4.6827,4.6839,4.6865,4.6858,4.6881,4.6902,4.6886,4.6919,4.6924,4.6944,4.6948,4.6974,4.695,4.6968,4.6972,4.6977,4.6984,4.685,4.6976,4.6976,4.6976,4.6975,4.6975,0,4.6892,4.6893,4.6918,4.6935,4.6956,4.6927,4.6938,4.6957,4.6987,4.6994,4.7013,4.7046,4.707,4.7062,4.7083,4.7105,4.7092,4.7112,4.711,4.711,4.7004,4.6991,4.7122,4.7122,4.7122,4.7122,4.7122,4.7121,4.6963,4.7011,4.7003,4.7054,4.7054,4.7087,4.7096,4.7107,4.7112,4.715,4.717,4.7165,4.7167,4.7188,4.7209,4.7206,4.7215,4.7239,4.7232,4.7132,4.7118,4.7104,4.7092,4.7242,4.7242,4.7336,4.7337,4.7338]}]]